GW6069 Weather Reports


time (UTC)temp
C
wind
direction
speed
KPH
gust
KPH
rain 1hr
cm
rain 24hr
cm
rain mn
cm
humidity
%
barometer
mb
20260506070332 11 0 16.1 29.0 0.00 0.00 0.00 86 1008.1
20260506062328 10 1 20.9 29.0 0.00 0.00 0.00 91 1008.0
20260506061829 10 6 16.1 29.0 0.00 0.00 0.00 93 1007.9
20260506061329 10 1 16.1 24.1 0.00 0.00 0.00 95 1007.9
20260506061057 10 4 19.3 20.9 0.00 0.00 0.00 97 1007.9
20260506060328 10 356 12.9 22.5 0.00 0.00 0.00 97 1008.0
20260506051323 9 353 22.5 27.4 0.00 0.00 0.00 97 1008.2
20260506050821 9 353 14.5 25.7 0.00 0.00 0.00 96 1007.9
20260506050321 9 9 19.3 25.7 0.00 0.00 0.00 96 1008.2
20260506044818 9 2 19.3 29.0 0.00 0.00 0.00 94 1008.1
20260506044319 9 12 24.1 30.6 0.00 0.00 0.00 93 1008.1
20260506043818 9 358 24.1 30.6 0.00 0.00 0.00 92 1008.0
20260506043319 9 358 22.5 27.4 0.00 0.00 0.00 92 1008.0
20260506042816 9 0 22.5 25.7 0.00 0.00 0.00 91 1008.1
20260506042317 9 4 17.7 27.4 0.00 0.00 0.00 91 1008.1
20260506041816 9 3 20.9 27.4 0.00 0.00 0.00 91 1008.1
20260506041315 9 353 17.7 29.0 0.00 0.00 0.00 90 1008.0
20260506040813 9 11 14.5 30.6 0.00 0.00 0.00 89 1008.0
20260506040314 9 8 20.9 30.6 0.00 0.00 0.00 88 1007.9
20260506035813 10 10 17.7 27.4 0.00 0.00 0.00 87 1008.1
20260506035313 10 17 19.3 27.4 0.00 0.00 0.00 87 1008.0
20260506034811 10 8 19.3 32.2 0.00 0.00 0.00 87 1008.0
20260506034312 10 22 24.1 32.2 0.00 0.00 0.00 86 1008.1
20260506033813 10 17 22.5 29.0 0.00 0.00 0.00 86 1008.2
20260506033807 10 352 14.5 29.0 0.00 0.00 0.00 86 1008.2
20260506032809 10 2 14.5 25.7 0.00 0.00 0.00 86 1008.2
20260506032309 10 353 25.7 33.8 0.00 0.00 0.00 86 1008.0
20260506031806 10 357 33.8 33.8 0.00 0.00 0.00 86 1008.3
20260506031306 9 359 25.7 30.6 0.00 0.00 0.00 86 1008.3
20260506030806 9 352 20.9 30.6 0.00 0.00 0.00 86 1008.2
20260506030307 9 10 20.9 29.0 0.00 0.00 0.00 86 1008.1
20260506025805 9 350 16.1 30.6 0.00 0.00 0.00 86 1008.3
20260506025306 9 8 19.3 30.6 0.00 0.00 0.00 86 1008.3
20260506025032 9 353 20.9 25.7 0.00 0.00 0.00 87 1008.4
20260506024305 9 0 19.3 25.7 0.00 0.00 0.00 87 1008.4
20260506023805 9 7 25.7 27.4 0.00 0.00 0.00 87 1008.4
20260506023530 9 348 22.5 27.4 0.00 0.00 0.00 87 1008.4
20260506022803 9 353 17.7 27.4 0.00 0.00 0.00 87 1008.5
20260506022531 9 348 20.9 29.0 0.00 0.00 0.00 87 1008.6
20260506021802 9 22 19.3 29.0 0.00 0.00 0.00 87 1008.5
20260506021302 9 12 17.7 29.0 0.00 0.00 0.00 86 1008.5
20260506020800 9 352 19.3 29.0 0.00 0.00 0.00 86 1008.5
20260506020300 9 5 17.7 25.7 0.00 0.00 0.00 86 1008.4
20260506015801 9 4 16.1 25.7 0.00 0.00 0.00 86 1008.5
20260506015259 9 357 16.1 25.7 0.00 0.00 0.00 85 1008.5
20260506014800 9 351 19.3 29.0 0.00 0.00 0.00 85 1008.3
20260506014258 9 347 12.9 29.0 0.00 0.00 0.00 84 1008.4
20260506014027 10 8 22.5 29.0 0.00 0.00 0.00 84 1008.6
20260506013257 9 355 17.7 30.6 0.00 0.00 0.00 84 1008.5
20260506012757 9 0 27.4 30.6 0.00 0.00 0.00 84 1008.5
20260506012256 10 351 25.7 30.6 0.00 0.00 0.00 84 1008.5
20260506011755 10 353 27.4 32.2 0.00 0.00 0.00 84 1008.7
20260506011527 9 350 32.2 32.2 0.00 0.00 0.00 84 1008.7
20260506011028 9 4 27.4 32.2 0.00 0.00 0.00 84 1008.6
20260506010253 9 4 20.9 30.6 0.00 0.00 0.00 84 1008.6
20260506010025 9 352 20.9 30.6 0.00 0.00 0.00 84 1008.6
20260506005251 9 355 24.1 32.2 0.00 0.00 0.00 84 1008.7
20260506005026 9 359 27.4 32.2 0.00 0.00 0.00 83 1008.8
20260506004250 9 350 24.1 29.0 0.00 0.00 0.00 83 1009.0
20260506003750 9 353 16.1 32.2 0.00 0.00 0.00 83 1008.9
20260506003249 9 355 20.9 32.2 0.00 0.00 0.00 83 1009.0
20260506002751 9 7 22.5 29.0 0.00 0.00 0.00 83 1008.9
20260506002250 9 358 24.1 29.0 0.00 0.00 0.00 83 1009.1
20260506001751 9 17 17.7 27.4 0.00 0.00 0.00 84 1009.0
20260506001249 9 354 20.9 27.4 0.00 0.00 0.00 84 1009.1
20260506000746 9 5 16.1 27.4 0.00 0.00 0.00 84 1009.2
20260506000247 9 5 16.1 27.4 0.00 0.00 0.00 84 1009.2
20260505235747 8 359 16.1 27.4 0.00 0.00 0.00 84 1009.3
20260505235246 8 356 17.7 24.1 0.00 0.00 0.00 85 1009.2
20260505234744 8 1 17.7 24.1 0.00 0.00 0.00 85 1009.2
20260505234243 8 354 17.7 25.7 0.00 0.00 0.00 84 1009.5
20260505233744 8 0 19.3 25.7 0.00 0.00 0.00 84 1009.2
20260505233245 8 358 12.9 20.9 0.00 0.00 0.00 84 1009.3
20260505232745 8 0 16.1 24.1 0.00 0.00 0.00 84 1009.2
20260505232242 8 358 16.1 24.1 0.00 0.00 0.00 84 1009.3
20260505231747 9 357 19.3 25.7 0.00 0.00 0.00 84 1009.5
20260505231742 8 349 16.1 25.7 0.00 0.00 0.00 84 1009.3
20260505230740 9 2 19.3 25.7 0.00 0.00 0.00 83 1009.5
20260505230512 9 353 17.7 24.1 0.00 0.00 0.00 83 1009.3
20260505225738 9 357 19.3 24.1 0.00 0.00 0.00 83 1009.4
20260505225237 9 350 20.9 27.4 0.00 0.00 0.00 83 1009.4
20260505224736 9 350 17.7 27.4 0.00 0.00 0.00 82 1009.4
20260505224236 9 357 14.5 27.4 0.00 0.00 0.00 82 1009.5
20260505223736 9 358 20.9 27.4 0.00 0.00 0.00 82 1009.6
20260505223236 9 25 12.9 20.9 0.00 0.00 0.00 80 1009.6
20260505222735 10 27 16.1 29.0 0.00 0.00 0.00 80 1009.6
20260505222234 10 0 16.1 29.0 0.00 0.00 0.00 80 1009.6
20260505221735 10 18 22.5 27.4 0.00 0.00 0.00 80 1009.6
20260505221230 10 0 17.7 27.4 0.00 0.00 0.00 80 1009.6
20260505221225 10 13 17.7 27.4 0.00 0.00 0.00 81 1009.6
20260505220231 10 6 20.9 27.4 0.00 0.00 0.00 81 1009.6
20260505215732 10 0 20.9 30.6 0.00 0.00 0.00 81 1009.6
20260505215233 10 3 19.3 30.6 0.00 0.00 0.00 81 1009.8
20260505214730 10 352 17.7 29.0 0.00 0.00 0.00 81 1009.8
20260505214455 10 357 17.7 29.0 0.00 0.00 0.00 81 1009.8
20260505213730 10 7 24.1 27.4 0.00 0.00 0.00 80 1009.7
20260505213231 10 8 16.1 30.6 0.00 0.00 0.00 80 1009.8
20260505212956 10 15 17.7 30.6 0.00 0.00 0.00 80 1009.7
20260505212228 10 5 19.3 29.0 0.00 0.00 0.00 80 1009.9
20260505211957 10 358 20.9 29.0 0.00 0.00 0.00 80 1009.9
20260505211227 10 3 20.9 29.0 0.00 0.00 0.00 80 1009.8
20260505210728 10 16 20.9 29.0 0.00 0.00 0.00 80 1009.8
20260505210451 10 1 24.1 30.6 0.00 0.00 0.00 81 1009.9
20260505205952 10 357 20.9 30.6 0.00 0.00 0.00 80 1009.8
20260505205225 10 6 14.5 37.0 0.00 0.00 0.00 79 1009.9
20260505204958 10 1 19.3 40.2 0.00 0.00 0.00 78 1009.8
20260505204722 11 1 24.1 41.8 0.00 0.00 0.00 77 1010.0
20260505203725 11 356 29.0 45.1 0.00 0.00 0.00 77 1009.9
20260505203224 11 21 35.4 45.1 0.00 0.00 0.00 77 1009.9
20260505202723 11 9 29.0 41.8 0.00 0.00 0.00 77 1009.9
20260505202452 11 6 27.4 35.4 0.00 0.00 0.00 77 1009.8
20260505201955 11 9 17.7 38.6 0.00 0.00 0.00 77 1009.9
20260505201220 11 11 27.4 38.6 0.00 0.00 0.00 77 1009.8
20260505200719 11 16 24.1 35.4 0.00 0.00 0.00 77 1010.0
20260505200219 11 17 19.3 33.8 0.00 0.00 0.00 77 1009.9
20260505195733 11 9 24.1 33.8 0.00 0.00 0.00 77 1009.9
20260505195218 11 12 22.5 33.8 0.00 0.00 0.00 76 1009.7
20260505194718 11 15 24.1 41.8 0.00 0.00 0.00 76 1009.7
20260505194219 11 10 29.0 43.5 0.00 0.00 0.00 76 1009.6
20260505193716 11 12 22.5 43.5 0.00 0.00 0.00 76 1009.8
20260505193446 11 13 22.5 43.5 0.00 0.00 0.00 76 1009.6
20260505192717 11 12 27.4 43.5 0.00 0.00 0.00 75 1009.6
20260505192215 11 2 24.1 37.0 0.00 0.00 0.00 75 1009.4
20260505191949 11 15 20.9 41.8 0.00 0.00 0.00 74 1009.5
20260505191213 12 10 30.6 41.8 0.00 0.00 0.00 74 1009.5
20260505190714 12 1 32.2 40.2 0.00 0.00 0.00 74 1009.5
20260505190211 12 10 29.0 40.2 0.00 0.00 0.00 74 1009.3
20260505185711 12 17 33.8 38.6 0.00 0.00 0.00 74 1009.2
20260505185211 12 15 19.3 32.2 0.00 0.00 0.00 74 1009.1
20260505184712 12 31 17.7 33.8 0.00 0.00 0.00 73 1009.1
20260505184437 12 15 30.6 33.8 0.00 0.00 0.00 73 1009.1
20260505183936 12 23 24.1 37.0 0.00 0.00 0.00 73 1009.2
20260505183208 12 5 20.9 37.0 0.00 0.00 0.00 72 1009.0
20260505182710 12 353 17.7 32.2 0.00 0.00 0.00 73 1009.1
20260505182207 13 15 27.4 33.8 0.00 0.00 0.00 72 1009.1
20260505181707 13 14 27.4 35.4 0.00 0.00 0.00 72 1009.0
20260505181205 13 24 19.3 35.4 0.00 0.00 0.00 71 1008.9
20260505180706 13 8 24.1 35.4 0.00 0.00 0.00 70 1008.9
20260505180208 13 23 22.5 38.6 0.00 0.00 0.00 70 1009.0
20260505175704 13 10 30.6 38.6 0.00 0.00 0.00 69 1009.0
20260505175428 13 8 19.3 41.8 0.00 0.00 0.00 69 1008.7
20260505174705 13 8 30.6 41.8 0.00 0.00 0.00 68 1008.9
20260505174203 14 16 22.5 33.8 0.00 0.00 0.00 67 1008.8
20260505173703 14 23 27.4 40.2 0.00 0.00 0.00 68 1008.9
20260505173205 15 9 25.7 40.2 0.00 0.00 0.00 67 1008.8
20260505172702 15 7 24.1 38.6 0.00 0.00 0.00 67 1008.7
20260505172201 15 5 27.4 35.4 0.00 0.00 0.00 66 1008.9
20260505171702 15 9 20.9 35.4 0.00 0.00 0.00 67 1008.9
20260505171200 15 9 19.3 35.4 0.00 0.00 0.00 65 1008.8
20260505170701 15 26 20.9 33.8 0.00 0.00 0.00 65 1008.9
20260505170159 15 3 30.6 33.8 0.00 0.00 0.00 67 1008.9
20260505165659 15 3 25.7 32.2 0.00 0.00 0.00 65 1009.0
20260505165157 16 354 19.3 35.4 0.00 0.00 0.00 66 1009.0
20260505164658 16 5 24.1 35.4 0.00 0.00 0.00 65 1009.0
20260505163922 16 22 17.7 33.8 0.00 0.00 0.00 65 1009.1
20260505163155 16 13 24.1 33.8 0.00 0.00 0.00 65 1009.2
20260505162657 16 359 16.1 35.4 0.00 0.00 0.00 63 1009.0
20260505162404 17 357 17.7 29.0 0.00 0.00 0.00 61 1009.2
20260505161154 17 357 20.9 35.4 0.00 0.00 0.00 64 1009.1
20260505160922 17 11 22.5 35.4 0.00 0.00 0.00 63 1009.2
20260505160152 17 3 22.5 37.0 0.00 0.00 0.00 63 1009.2
20260505153151 16 9 19.3 32.2 0.00 0.00 0.00 64 1009.3
20260505152650 16 345 20.9 30.6 0.00 0.00 0.00 66 1009.4
20260505152148 16 358 17.7 33.8 0.00 0.00 0.00 67 1009.3
20260505151647 16 14 14.5 33.8 0.00 0.00 0.00 64 1009.5
20260505151418 16 8 20.9 30.6 0.00 0.00 0.00 64 1009.4
20260505150646 16 3 20.9 25.7 0.00 0.00 0.00 65 1009.4
20260505150148 16 353 20.9 25.7 0.00 0.00 0.00 71 1009.4
20260505140641 17 350 11.3 30.6 0.00 0.00 0.00 66 1009.9
20260505140139 17 8 17.7 32.2 0.00 0.00 0.00 68 1009.7
20260505124900 16 354 11.3 22.5 0.00 0.00 0.00 75 1010.1
20260505124129 16 8 11.3 20.9 0.00 0.00 0.00 75 1010.2
20260505123629 15 9 14.5 20.9 0.00 0.00 0.00 77 1010.3
20260505123128 15 359 19.3 25.7 0.00 0.00 0.00 75 1010.3
20260505122630 15 12 16.1 25.7 0.00 0.00 0.00 75 1010.5
20260505122127 15 359 16.1 30.6 0.00 0.00 0.00 76 1010.3
20260505121627 16 6 6.4 30.6 0.00 0.00 0.00 73 1010.4
20260505121352 17 16 20.9 27.4 0.00 0.00 0.00 73 1010.3
20260505120626 17 2 19.3 27.4 0.00 0.00 0.00 72 1010.4
20260505120352 17 356 16.1 22.5 0.00 0.00 0.00 73 1010.3
20260505115625 17 2 11.3 24.1 0.00 0.00 0.00 72 1010.3
20260505115125 17 9 9.7 24.1 0.00 0.00 0.00 74 1010.4
20260505114625 16 7 19.3 27.4 0.00 0.00 0.00 74 1010.2
20260505114123 16 3 16.1 29.0 0.00 0.00 0.00 73 1010.4
20260505113623 16 4 17.7 29.0 0.00 0.00 0.00 76 1010.4
20260505113355 16 0 14.5 27.4 0.00 0.00 0.00 74 1010.4
20260505112622 16 16 20.9 29.0 0.00 0.00 0.00 76 1010.5
20260505112122 16 0 19.3 30.6 0.00 0.00 0.00 76 1010.4
20260505111852 15 6 17.7 33.8 0.00 0.00 0.00 74 1010.6
20260505111120 15 3 22.5 37.0 0.00 0.00 0.00 75 1010.6
20260505110852 15 26 22.5 37.0 0.00 0.00 0.00 74 1010.6
20260505110119 14 25 24.1 30.6 0.00 0.00 0.00 79 1010.6
20260505102116 12 10 25.7 33.8 0.00 0.00 0.00 85 1011.1
20260505101614 12 20 19.3 37.0 0.00 0.00 0.00 84 1011.0
20260505101111 12 14 29.0 37.0 0.00 0.00 0.00 85 1010.7
20260505100611 12 344 24.1 33.8 0.00 0.00 0.00 86 1011.0
20260505100110 12 18 17.7 33.8 0.00 0.00 0.00 85 1010.9
20260505095611 12 0 27.4 33.8 0.00 0.00 0.00 87 1010.9
20260505095109 11 5 24.1 30.6 0.00 0.00 0.00 86 1011.1
20260505094610 11 19 22.5 30.6 0.00 0.00 0.00 86 1011.0
20260505094108 12 16 20.9 29.0 0.00 0.00 0.00 87 1010.9
20260505093609 12 351 24.1 29.0 0.00 0.00 0.00 87 1011.2
20260505093107 12 4 19.3 29.0 0.00 0.00 0.00 88 1011.1
20260505092607 11 10 16.1 30.6 0.00 0.00 0.00 89 1011.1
20260505092332 11 11 22.5 32.2 0.00 0.00 0.00 88 1011.0
20260505091606 11 16 27.4 32.2 0.00 0.00 0.00 88 1011.1
20260505091104 11 352 20.9 27.4 0.00 0.00 0.00 89 1011.0
20260505090604 11 15 19.3 33.8 0.00 0.00 0.00 90 1011.1
20260505090107 11 5 19.3 30.6 0.00 0.00 0.00 91 1011.2
20260505085603 11 15 16.1 33.8 0.00 0.00 0.00 91 1011.2
20260505085103 11 10 17.7 33.8 0.00 0.00 0.00 91 1011.3
20260505084832 11 20 19.3 32.2 0.00 0.00 0.00 92 1011.2
20260505084104 11 20 22.5 27.4 0.00 0.00 0.00 92 1011.4
20260505083601 11 1 17.7 32.2 0.00 0.00 0.00 92 1011.3
20260505083101 10 358 24.1 32.2 0.00 0.00 0.00 92 1011.2
20260505082603 10 19 24.1 32.2 0.00 0.00 0.00 92 1011.3
20260505082100 10 16 20.9 32.2 0.00 0.00 0.00 92 1011.2
20260505081600 10 27 30.6 35.4 0.00 0.00 0.00 92 1011.2
20260505081058 10 16 22.5 35.4 0.00 0.00 0.00 93 1011.2
20260505080827 11 11 17.7 25.7 0.00 0.00 0.00 93 1011.3
20260505080324 10 16 19.3 37.0 0.00 0.00 0.00 93 1011.2
20260505075559 10 4 17.7 37.0 0.00 0.00 0.00 93 1011.0
20260505075056 10 19 24.1 35.4 0.00 0.00 0.00 94 1011.0
20260505074557 10 16 14.5 35.4 0.00 0.00 0.00 94 1011.1
20260505074057 10 12 27.4 30.6 0.00 0.00 0.00 94 1011.0
20260505073558 10 5 17.7 32.2 0.00 0.00 0.00 94 1011.1
20260505073054 10 17 20.9 33.8 0.00 0.00 0.00 94 1011.0
20260505072556 10 356 20.9 33.8 0.00 0.00 0.00 95 1011.0
20260505072054 10 25 27.4 29.0 0.00 0.00 0.00 95 1010.9
20260505071553 10 27 14.5 29.0 0.00 0.00 0.00 96 1011.0
20260505071052 10 9 19.3 33.8 0.00 0.00 0.00 96 1011.0